Simultaneous Nadir Overpasses (SNOs) Predictions

Prediction of SNOs between LANDSAT-8 and NOAA-19 Satellite Orbit:

Table of predicted SNOs for the next 14.0 days since TLE Epoch: 1/7/2017
Index Date (LANDSAT-8) Time (LANDSAT-8) Lat,Lon (LANDSAT-8) SZA (LANDSAT-8 ) Date (NOAA-19) Time (NOAA-19) Lat,Lon (NOAA-19) SZA (NOAA-19 ) Distance(km) Time Diff (sec)
1 01/08/2017 19:06:07 75.57, -99.53 97.68 01/08/2017 19:05:39 75.57, -99.48 97.67 1.49 28
2 01/08/2017 19:55:36 -75.50, 67.89 82.41 01/08/2017 19:56:43 -75.50, 67.97 82.40 2.15 67
3 01/11/2017 00:39:51 -75.60, -2.89 82.63 01/11/2017 00:39:39 -75.58, -2.96 82.66 3.19 12
4 01/11/2017 01:29:20 75.43, 164.26 97.18 01/11/2017 01:30:32 75.43, 164.78 97.21 14.51 72
5 01/13/2017 06:13:34 75.58, 93.61 96.98 01/13/2017 06:13:29 75.56, 93.68 96.97 2.36 5
6 01/15/2017 10:57:42 76.02, 23.85 97.04 01/15/2017 10:56:35 76.10, 21.14 97.08 73.12 67
7 01/15/2017 11:47:18 -75.60,-169.75 83.41 01/15/2017 11:47:29 -75.57,-169.79 83.43 3.36 11
8 01/17/2017 16:31:34 -75.65, 119.31 83.79 01/17/2017 16:30:25 -75.66, 119.24 83.78 2.50 69
9 01/17/2017 17:21:01 75.57, -73.28 96.13 01/17/2017 17:21:19 75.57, -73.16 96.13 3.22 18
10 01/19/2017 22:05:16 75.66,-144.09 95.76 01/19/2017 22:04:15 75.65,-144.13 95.75 1.17 61




NCC Satellite Simultaneous Nadir Overpasses (SNOs) Prediction Service
